STARLINK-2427, 47837

Orbit data source: Space-Track

STARLINK-2427, 47837 is a payload satellite owned by SpaceX/Seattle (US) in LEO that was launched on Thu, 11 Mar 2021 UTC via an FALCON 9 launch vehicle from the Air Force Eastern Test Range (AFETR). Payload-class satellites include a variety of spacecraft equipped with specific instruments for various scientific and technological missions. These include communications satellites like Starlink; space stations such as the ISS; scientific satellites like the Hubble; Earth observation satellites from companies like Planet Labs, Umbra, and HawkEye 360; GPS; miniature CubeSats for education and research; and military/defense satellites.

Loading next visibility...
Identifier
47837, 2021-018BC
Orbit
LEO
Country
Flag of USUS
Related business
Manufacturer
SpaceX/Seattle
Mission
Operational Commercial Communications
Bus & Motor
STARLINK, Unknown motor
Mass
260 kg wet, ~248 kg dry
Launch date (UTC)
2021-03-11 (5 years ago)
Launch vehicle
FALCON 9
Launch site
Air Force Eastern Test Range (AFETR)
Object type
Payload
Rocket body
Debris
Shape & HBR
Box + 1 Pan, 10.1 m
Radar Cross Section
13.562 m², Large (>1 m²)

Expand to show TLE details & history
Last TLE update: 18 hours ago

TLE from 18 hours ago
0 STARLINK-2427
1 47837U 21018BC  26238.13320453  .00008998  00000-0  30059-3 0  9997
2 47837  53.1602 170.5125 0001493  66.6989 293.4169 15.31784464302732
Epoch: 2026-08-26T03:11Z
TLE epoch observation values (Epoch: 2026-08-26T03:11:48.871Z)
Latitude
-0.00006°
Longitude
148.16825°
Altitude
470.982 km
Speed
7.632 km/s
True Right ascension
11h 22m 02s
True Declination
0° 00' 00"
Sunlit
Object was in daylight at epoch
Visualization orbit readout
Latitude
Unknown
Longitude
Unknown
Altitude
Unknown
Speed
Unknown
Apparent Right ascension
Unknown
Apparent Declination
Unknown
Sunlit
N/A
Visualization observer readout
Local Sidereal Time
12:18:57
Azimuth
Unknown
Elevation
Unknown
Doppler factor
Unknown
Orbital elements
Apogee altitude
471.767 km
Perigee altitude
469.722 km
Semi-major axis
6,848.882 km
Eccentricity
0.00015
Inclination
53.1602°
RAAN
170.5125°
Arg. of periapsis
66.6989°
True anomaly
293.4012°
Mean anomaly
293.4169°
Eccentric anomaly
293.40905°
Mean motion
3.82925 °/min
Orbital period
94.01 mins
BSTAR
0.00030059
Loading maneuver chart data...
Computing Atmospheric mass density...
Loading historical data...
Loading historical data...
Loading historical data...
Loading historical data...
Loading historical data...
Loading historical data...
Loading historical data...

Documentation

Showing up to 5 results
|